Content
SEND FEEDBACK

Daily
Averages
Monthly
Summary
United States of America

MERIZO, GUAM


Home > North America > United States > Guam
Elevation: 3 meters     Latitude: 13 14N     Longitude: 144 39E

WEATHER
 
SELECT A DAY
Number of Records: 351,844;   Date Range: 1/1/95 - 10/23/14
 
SHARE

PRINT THIS DATA

[ ← Previous Day ]
WEATHER ALMANAC - 22 MAY, 2013
[ Next Day → ]
[ °F ]   °C
Weather ElementAverageHighLow
Temperature27.1 °C30.3 °C (1:55 pm)24.6 °C (7:55 am)
Dewpoint24 °C25 °C (6:36 am)22.9 °C (4:55 am)
Humidity83.7 %94 % (6:36 am)67 % (11:55 am)
Barometer1011.9 hPa1012.9 hPa (7:40 am)1009.8 hPa (2:55 pm)
Wind Speed14.6 km/h27.8 km/h (10:08 pm)
Wind Gust31.5 km/h (2:55 pm)
Weather ElementAverage
Visibility14 km
Wind DirectionENE (66.2 °)

Weather ElementTotal
Precipitation7.37 mm
Cooling Degree Days9.1 (Base 18.3)
Growing Degree Days17.4 (Base 10)
Averaged from 74 records on 22 May, 2013
WEATHER CONDITIONS BREAKOUT
WIND DIRECTION BREAKOUT
WEATHER BY HOUR - 22 MAY, 2013
[ °F ]   °C
Local TimeTemperatureDewpointHumidityBarometerVisibilityWind DirectionWind SpeedGust SpeedPrecipitationEventsConditions
1:55 AM26.5 °C24.3 °C88 %1011.5 hPa16.1 kmNE (50°)14.8 km/hScattered Clouds
2:55 AM26.8 °C23.7 °C83 %1011.5 hPa16.1 kmNE (50°)13 km/hScattered Clouds
3:15 AM27 °C24 °C84 %1011.2 hPa16.1 kmNE (40°)16.7 km/hMostly Cloudy
3:27 AM27 °C24 °C84 %1011.2 hPa16.1 kmNE (50°)13 km/hScattered Clouds
3:55 AM26.8 °C23.8 °C84 %1011.2 hPa16.1 kmENE (70°)16.7 km/hMostly Cloudy
4:55 AM24.9 °C22.9 °C89 %1011.5 hPa16.1 kmNNE (20°)11.1 km/hPartly Cloudy
5:55 AM25.3 °C23.8 °C91 %1011.5 hPa16.1 kmNNE (30°)11.1 km/hClear
6:25 AM26 °C24 °C89 %1011.9 hPa14.5 kmNNE (20°)7.4 km/hRainLight Rain
6:36 AM26 °C25 °C94 %1011.9 hPa16.1 kmNNE (30°)7.4 km/hPartly Cloudy
6:55 AM26.1 °C23.7 °C87 %1012.2 hPa16.1 kmNNE (30°)14.8 km/h0 mmScattered Clouds
7:04 AM26 °C24 °C89 %1012.5 hPa16.1 kmNorth (360°)16.7 km/hMostly Cloudy
7:06 AM26 °C24 °C89 %1012.5 hPa16.1 kmNorth (10°)16.7 km/hLight Drizzle
7:11 AM25 °C24 °C94 %1012.5 hPa4 kmNorth (10°)16.7 km/hRainHeavy Rain
7:12 AM25 °C24 °C94 %1012.5 hPa2.9 kmNNE (20°)16.7 km/hRainHeavy Rain
7:13 AM25 °C24 °C94 %1012.5 hPa1.9 kmNNE (30°)14.8 km/hRainHeavy Rain
7:14 AM25 °C24 °C94 %1012.5 hPa1.6 kmNNE (30°)11.1 km/hRainHeavy Rain
7:15 AM25 °C24 °C94 %1012.5 hPa1.3 kmNE (50°)9.3 km/hRainHeavy Rain
7:22 AM25 °C24 °C94 %1012.5 hPa1.6 kmNW (310°)7.4 km/hRainLight Rain
7:23 AM25 °C24 °C94 %1012.5 hPa1.9 kmNW (310°)5.6 km/hRainLight Rain
7:24 AM25 °C24 °C94 %1012.5 hPa2.9 kmCalmRainLight Rain
7:25 AM25 °C24 °C94 %1012.5 hPa4.8 kmCalmRainLight Rain
7:27 AM25 °C23 °C89 %1012.5 hPa12.9 kmCalmOvercast
7:40 AM25 °C24 °C94 %1012.9 hPa16.1 kmSSE (150°)5.6 km/hOvercast
7:42 AM25 °C24 °C94 %1012.9 hPa8 kmESE (110°)11.1 km/hRainLight Rain
7:48 AM25 °C23 °C89 %1012.9 hPa6.4 kmCalmRainLight Rain
7:52 AM25 °C23 °C89 %1012.9 hPa12.9 kmCalmOvercast
7:55 AM24.6 °C22.9 °C90 %1012.9 hPa16.1 kmCalm5.59 mmOvercast
7:57 AM25 °C23 °C89 %1012.9 hPa16.1 kmCalmOvercast
8:07 AM25 °C24 °C94 %1012.9 hPa16.1 kmEast (100°)5.6 km/hOvercast
8:18 AM27 °C25 °C89 %1012.9 hPa16.1 kmENE (70°)9.3 km/hMostly Cloudy
8:28 AM27 °C25 °C89 %1012.9 hPa16.1 kmNE (50°)16.7 km/hMostly Cloudy
8:55 AM27.8 °C25 °C85 %1012.9 hPa16.1 kmNNE (30°)14.8 km/hMostly Cloudy
8:58 AM28 °C25 °C84 %1012.9 hPa16.1 kmNE (40°)13 km/hMostly Cloudy
9:07 AM28 °C25 °C84 %1012.9 hPa16.1 kmNE (50°)16.7 km/hScattered Clouds
9:11 AM28 °C25 °C84 %1012.9 hPa16.1 kmEast (80°)14.8 km/hMostly Cloudy
9:29 AM29 °C25 °C79 %1012.9 hPa16.1 kmENE (70°)16.7 km/hMostly Cloudy
9:38 AM28 °C25 °C84 %1012.9 hPa16.1 kmEast (80°)13 km/hMostly Cloudy
9:49 AM29 °C25 °C79 %1012.5 hPa16.1 kmEast (80°)14.8 km/hMostly Cloudy
9:51 AM29 °C25 °C79 %1012.5 hPa16.1 kmEast (80°)14.8 km/hScattered Clouds
9:55 AM29 °C24.4 °C76 %1012.5 hPa16.1 kmENE (70°)16.7 km/hScattered Clouds
10:05 AM29 °C24 °C74 %1012.5 hPa16.1 kmENE (70°)14.8 km/hMostly Cloudy
10:47 AM29 °C24 °C74 %1012.2 hPa16.1 kmEast (80°)16.7 km/hScattered Clouds
10:49 AM29 °C24 °C74 %1012.2 hPa16.1 kmEast (80°)18.5 km/hMostly Cloudy
10:51 AM29 °C24 °C74 %1012.2 hPa16.1 kmENE (60°)16.7 km/hScattered Clouds
10:55 AM29.4 °C24.7 °C76 %1012.2 hPa16.1 kmEast (80°)22.2 km/hScattered Clouds
11:15 AM30 °C25 °C74 %1011.9 hPa16.1 kmEast (80°)22.2 km/hMostly Cloudy
11:16 AM30 °C24 °C70 %1011.9 hPa16.1 kmEast (80°)22.2 km/hScattered Clouds
11:55 AM29.8 °C23 °C67 %1011.5 hPa16.1 kmNE (50°)20.4 km/h27.8 km/hClear
12:55 PM30 °C23.7 °C69 %1010.8 hPa16.1 kmEast (80°)16.7 km/hClear
1:55 PM30.3 °C24.1 °C69 %1010.5 hPa16.1 kmENE (60°)18.5 km/hScattered Clouds
2:22 PM30 °C24 °C70 %1010.2 hPa16.1 kmENE (60°)20.4 km/hMostly Cloudy
2:27 PM30 °C24 °C70 %1010.2 hPa16.1 kmENE (60°)18.5 km/hScattered Clouds
2:55 PM30 °C23.9 °C70 %1009.8 hPa16.1 kmNE (50°)24.1 km/h31.5 km/hScattered Clouds
3:42 PM29 °C24 °C74 %1009.8 hPa16.1 kmENE (70°)20.4 km/hMostly Cloudy
3:45 PM29 °C24 °C74 %1009.8 hPa16.1 kmNE (50°)22.2 km/hScattered Clouds
3:50 PM29 °C24 °C74 %1009.8 hPa16.1 kmEast (80°)22.2 km/hMostly Cloudy
3:55 PM29.2 °C23.8 °C72 %1009.8 hPa16.1 kmEast (80°)20.4 km/hMostly Cloudy
4:09 PM29 °C24 °C74 %1009.8 hPa16.1 kmENE (60°)24.1 km/hLight Drizzle
4:18 PM28 °C24 °C79 %1009.8 hPa16.1 kmENE (60°)24.1 km/hMostly Cloudy
4:36 PM29 °C24 °C74 %1009.8 hPa16.1 kmENE (60°)22.2 km/hMostly Cloudy
4:55 PM29 °C24 °C74 %1009.8 hPa16.1 kmENE (60°)22.2 km/h0 mmPartly Cloudy
5:55 PM27.7 °C23.8 °C79 %1010.5 hPa16.1 kmEast (80°)22.2 km/hPartly Cloudy
6:33 PM27 °C24 °C84 %1010.8 hPa14.5 kmENE (60°)24.1 km/hRainLight Rain
6:47 PM26 °C24 °C89 %1010.8 hPa16.1 kmEast (90°)14.8 km/hPartly Cloudy
6:55 PM25.9 °C23.3 °C85 %1011.2 hPa16.1 kmEast (80°)11.1 km/h0 mmPartly Cloudy
7:55 PM26.4 °C23.8 °C86 %1011.9 hPa16.1 kmENE (70°)14.8 km/hPartly Cloudy
8:55 PM26.6 °C23.8 °C85 %1012.2 hPa16.1 kmENE (70°)14.8 km/hPartly Cloudy
9:55 PM26.5 °C24.6 °C89 %1012.2 hPa16.1 kmENE (70°)20.4 km/hPartly Cloudy
9:58 PM26 °C24 °C89 %1012.5 hPa16.1 kmENE (70°)20.4 km/hLight Drizzle
10:01 PM26 °C24 °C89 %1012.5 hPa14.5 kmENE (60°)22.2 km/hRainRain
10:08 PM25 °C23 °C89 %1012.5 hPa8 kmNE (50°)27.8 km/hRainLight Rain
10:24 PM25 °C23 °C89 %1012.5 hPa16.1 kmENE (60°)11.1 km/hMostly Cloudy
10:55 PM25.2 °C23.5 °C90 %1012.2 hPa16.1 kmENE (70°)11.1 km/h1.78 mmClear
11:55 PM25.9 °C24.2 °C90 %1011.5 hPa16.1 kmEast (80°)11.1 km/hScattered Clouds
Hourly data recorded from PGUA, located 0 kilometers away from Merizo, Guam







STORIES FROM OUR PARTNERS